TimePDT,TemperatureF,Dew PointF,Humidity,Sea Level PressureIn,VisibilityMPH,Wind Direction,Wind SpeedMPH,Gust SpeedMPH,PrecipitationIn,Events,Conditions,WindDirDegrees,DateUTC
12:53 AM,28.0,21.0,75,30.02,10.0,Calm,Calm,-,N/A,,Mostly Cloudy,0,2013-03-18 07:53:00
1:53 AM,28.9,21.0,72,30.02,10.0,South,3.5,-,N/A,,Mostly Cloudy,170,2013-03-18 08:53:00
2:53 AM,26.1,21.0,81,30.03,10.0,Calm,Calm,-,N/A,,Mostly Cloudy,0,2013-03-18 09:53:00
3:53 AM,28.9,21.9,75,30.02,10.0,SSE,11.5,-,N/A,,Partly Cloudy,150,2013-03-18 10:53:00
4:53 AM,28.0,21.9,78,30.02,10.0,SSE,9.2,-,N/A,,Clear,160,2013-03-18 11:53:00
5:53 AM,27.0,21.9,81,30.03,10.0,SSE,10.4,-,N/A,,Clear,150,2013-03-18 12:53:00
6:53 AM,28.0,23.0,81,30.04,10.0,SSE,11.5,-,N/A,,Mostly Cloudy,150,2013-03-18 13:53:00
7:53 AM,28.0,24.1,85,30.06,10.0,SSE,12.7,-,N/A,,Overcast,150,2013-03-18 14:53:00
8:53 AM,28.9,25.0,85,30.06,10.0,South,11.5,-,N/A,,Overcast,180,2013-03-18 15:53:00
9:53 AM,30.9,25.0,79,30.07,10.0,South,11.5,-,N/A,,Overcast,180,2013-03-18 16:53:00
10:33 AM,33.8,24.8,70,30.00,10.0,South,10.4,-,N/A,,Overcast,170,2013-03-18 17:33:00
10:53 AM,34.0,25.0,70,30.06,10.0,SSE,11.5,-,N/A,,Overcast,160,2013-03-18 17:53:00
11:32 AM,35.6,26.6,70,29.98,10.0,SSW,9.2,-,N/A,,Overcast,200,2013-03-18 18:32:00
11:53 AM,37.0,25.0,62,30.04,10.0,South,11.5,-,N/A,,Overcast,180,2013-03-18 18:53:00
12:53 PM,41.0,24.1,51,30.01,10.0,WSW,18.4,23.0,N/A,,Overcast,250,2013-03-18 19:53:00
1:53 PM,43.0,23.0,45,29.99,10.0,WSW,17.3,21.9,N/A,,Overcast,250,2013-03-18 20:53:00
2:53 PM,39.9,26.1,58,29.99,7.0,SW,13.8,26.5,N/A,,Overcast,230,2013-03-18 21:53:00
3:53 PM,44.1,28.9,55,29.99,10.0,SW,10.4,-,0.01,,Mostly Cloudy,220,2013-03-18 22:53:00
4:53 PM,41.0,26.1,55,30.01,10.0,North,-9999.0,-,N/A,,Mostly Cloudy,0,2013-03-18 23:53:00
5:53 PM,39.0,28.0,65,30.04,10.0,NE,6.9,-,N/A,,Mostly Cloudy,40,2013-03-19 00:53:00
6:53 PM,36.0,28.0,73,30.06,10.0,NE,4.6,-,N/A,,Scattered Clouds,40,2013-03-19 01:53:00
7:53 PM,30.0,26.1,85,30.11,10.0,Calm,Calm,-,N/A,,Clear,0,2013-03-19 02:53:00
9:53 PM,27.0,24.1,89,30.17,10.0,Calm,Calm,-,N/A,,Clear,0,2013-03-19 04:53:00
10:53 PM,25.0,23.0,92,30.19,10.0,Calm,Calm,-,N/A,,Clear,0,2013-03-19 05:53:00
11:53 PM,24.1,21.9,91,30.21,10.0,Calm,Calm,-,N/A,,Clear,0,2013-03-19 06:53:00